Retour au catalogue

BREEZE-M DEB

ActifHEO
NORAD 38640·DEBRIS·🇷🇺 Russia

Lancé Mar 14, 2008 depuis Baikonur Cosmodrome

Loading…

Prochains Passages (prochaines 24 heures)

TLE

FraisSource: Space-Track

Époque: Sep 8, 2026, 05:53 UTC

1 38640U 08011CP  26251.24544818  .00000237  00000-0  14136-1 0  9991
2 38640  48.7654   2.5012 6378163 258.5835  67.0217  3.01786916170032

Suivez BREEZE-M DEB en temps réel avec AllMySat

Download on the App Store